Regional Weather Roundup
Issued by NWS

Home | Current Version | Previous Version | Graphics & Text | Print | Product List | Glossary Off
Versions: 1 2 3 4 5 6 7 8 9 10 11 12 13 14 15 16 17 18 19 20 21 22 23 24 25 26 27 28 29 30 31 32 33 34 35 36 37 38 39 40 41 42 43 44 45 46 47 48 49 50

000
ASUS43 KMKX 251811
RWRWI

WISCONSIN REGIONAL WEATHER ROUNDUP
NATIONAL WEATHER SERVICE MILWAUKEE/SULLIVAN WI
100 PM CDT WED MAY 25 2016

NOTE: "FAIR" INDICATES FEW OR NO CLOUDS BELOW 12,000 FEET WITH NO
SIGNIFICANT WEATHER AND/OR OBSTRUCTIONS TO VISIBILITY.

WIZ001-002-006>008-014>016-023>028-251900-
NORTHWEST WISCONSIN

CITY           SKY/WX    TMP DP  RH WIND       PRES   REMARKS
SUPERIOR ARPT  FOG       44  44 100 NE14G23   30.01F VSB 3/4
6HR MIN TEMP:  44; 6HR MAX TEMP:  46;

ASHLAND        CLOUDY    54  53  97 NE10      30.02F
6HR MIN TEMP:  51; 6HR MAX TEMP:  55;

HAYWARD        CLOUDY    75  57  53 E12       29.93F
6HR MIN TEMP:  54; 6HR MAX TEMP:  75;

SIREN          LGT RAIN  65  60  84 NW12      29.92S
6HR MIN TEMP:  57; 6HR MAX TEMP:  70;

CUMBERLAND     CLOUDY    73  57  56 SE8       29.90F
RICE LAKE      CLOUDY    77  57  51 E10       29.91S
6HR MIN TEMP:  62; 6HR MAX TEMP:  77;

CHETEK         CLOUDY    76  61  60 SE10G17   29.90S
6HR MIN TEMP:  61; 6HR MAX TEMP:  77;

LADYSMITH      CLOUDY    78  59  52 E15       29.93F
6HR MIN TEMP:  59; 6HR MAX TEMP:  78;

EAU CLAIRE     LGT RAIN  76  61  59 SE9       29.89R
6HR MIN TEMP:  61; 6HR MAX TEMP:  79; 6HR PCP: TRACE;

MENOMONIE      RAIN      72  62  70 E10       29.89F
6HR MIN TEMP:  61; 6HR MAX TEMP:  78; 6HR PCP:  0.04;

NEW RICHMOND   RAIN      67  65  91 N3        29.89F
6HR MIN TEMP:  62; 6HR MAX TEMP:  73; 6HR PCP:  0.09;

OSCEOLA        LGT RAIN  66  66 100 NW3       29.93R
6HR MIN TEMP:  63; 6HR MAX TEMP:  73; 6HR PCP:  0.12;

$$

WIZ003>005-009-010-017-018-251900-
NORTH CENTRAL WISCONSIN

CITY           SKY/WX    TMP DP  RH WIND       PRES   REMARKS
MANITOWISH WTR NOT AVBL
ARBOR VITAE    PTSUNNY   72  55  55 SE9       30.01F
6HR MIN TEMP:  59; 6HR MAX TEMP:  72;

WOODRUFF       PTSUNNY   72  55  55 SE9       30.01F
6HR MIN TEMP:  59; 6HR MAX TEMP:  72;

RHINELANDER    MOSUNNY   73  59  61 NE9       30.02F
6HR MIN TEMP:  57; 6HR MAX TEMP:  73;

EAGLE RIVER      N/A     72  53  51 E7        30.02F
LAND O LAKES   CLOUDY    71  56  61 E8        30.04F
6HR MIN TEMP:  57; 6HR MAX TEMP:  71;

PHILLIPS       CLOUDY    73  59  60 E9        29.97F
6HR MIN TEMP:  54; 6HR MAX TEMP:  73;

TOMAHAWK       MOSUNNY   73  59  59 E6        30.00F
6HR MIN TEMP:  54; 6HR MAX TEMP:  74;

MEDFORD        PTSUNNY   73  61  65 E13G21    29.96F
6HR MIN TEMP:  58; 6HR MAX TEMP:  73;

MERRILL        SUNNY     71  61  70 E9        29.99F
$$

WIZ029-030-035-036-043>047-251900-
CENTRAL WISCONSIN

CITY           SKY/WX    TMP DP  RH WIND       PRES   REMARKS
WAUSAU         CLOUDY    73  59  61 SE9       29.97F
6HR MIN TEMP:  60; 6HR MAX TEMP:  73;

MOSINEE        PTSUNNY   66  61  82 E13       30.00F
MARSHFIELD     CLOUDY    75  60  59 E12G24    29.94F
6HR MIN TEMP:  62; 6HR MAX TEMP:  75;

STEVENS POINT  PTSUNNY   69  58  67 E13       29.99S
6HR MIN TEMP:  58; 6HR MAX TEMP:  69;

WAUPACA        CLOUDY    77  59  54 E9        29.99F
6HR MIN TEMP:  60; 6HR MAX TEMP:  77;

WAUTOMA        MOSUNNY   74  60  61 E13G18    29.96F
6HR MIN TEMP:  61; 6HR MAX TEMP:  74;

WISC RAPIDS    MOSUNNY   78  58  49 E14       29.95F
6HR MIN TEMP:  62; 6HR MAX TEMP:  78;

CAMP DOUGLAS   PTSUNNY   82  72  69 SE13G20   29.88F HX  87
$$

WIZ011>013-019>022-031-037>040-048>050-251900-
NORTHEAST WISCONSIN

CITY           SKY/WX    TMP DP  RH WIND       PRES   REMARKS
ANTIGO         MOSUNNY   71  61  69 SE12      30.02F
6HR MIN TEMP:  57; 6HR MAX TEMP:  72;

SHAWANO        MOSUNNY   72  60  65 NE10      30.01F
6HR MIN TEMP:  60; 6HR MAX TEMP:  74;

OCONTO         CLOUDY    65  59  80 E8        30.02F
STURGEON BAY   NOT AVBL
GREEN BAY      PTSUNNY   68  59  73 NE12      30.02F
6HR MIN TEMP:  57; 6HR MAX TEMP:  69;

MANITOWOC      CLOUDY    61  55  81 NE10      30.03F
6HR MIN TEMP:  56; 6HR MAX TEMP:  62; 6HR PCP: TRACE;

APPLETON       PTSUNNY   70  57  64 NE8       29.99F
CLINTONVILLE   PTSUNNY   72  59  64 E9        30.01S
OSHKOSH        CLOUDY    73  61  65 E12       29.98F
6HR MIN TEMP:  61; 6HR MAX TEMP:  73;

$$

WIZ032>034-041-042-053>061-251900-
SOUTHWEST WISCONSIN

CITY           SKY/WX    TMP DP  RH WIND       PRES   REMARKS
LA CROSSE      CLOUDY    78  64  61 SW8       29.87F HX  80
6HR MIN TEMP:  64; 6HR MAX TEMP:  79; 6HR PCP:  0.01;

SPARTA         CLOUDY    82  64  54 E16       29.88S HX  83
6HR MIN TEMP:  56; 6HR MAX TEMP:  83;

VIROQUA        CLOUDY    77  60  55 SE14G21   29.89F
6HR MIN TEMP:  65; 6HR MAX TEMP:  80;

BOSCOBEL       CLOUDY    84  59  42 S14       29.87F HX  84
6HR MIN TEMP:  62; 6HR MAX TEMP:  85;

PRAIRIE DU CHI LGT RAIN  76  59  54 S7G20     29.87S
6HR MIN TEMP:  62; 6HR MAX TEMP:  80;

PLATTEVILLE    CLOUDY    82  59  46 S18       29.91F HX  82
6HR MIN TEMP:  68; 6HR MAX TEMP:  82;

$$

WIZ056-057-062-063-064-067-068-251900-
SOUTH CENTRAL WISCONSIN

CITY           SKY/WX    TMP DP  RH WIND       PRES   REMARKS
REEDSBURG      MOSUNNY   81  63  54 SE9G17    29.90F HX  82
6HR MIN TEMP:  60; 6HR MAX TEMP:  82;

BARABOO/DELLS  MOSUNNY   82  59  46 SE13G18   29.91F HX  82
6HR MIN TEMP:  64; 6HR MAX TEMP:  82;

LONE ROCK      CLOUDY    84  62  47 SE17G32   29.90F HX  85
6HR MIN TEMP:  62; 6HR MAX TEMP:  84;

MINERAL POINT  CLOUDY    82  61  47 SE16      29.91F HX  83
MADISON        PTSUNNY   82  65  56 SE14      29.91F HX  84
6HR MIN TEMP:  66; 6HR MAX TEMP:  82;

MIDDLETON      PTSUNNY   83  63  49 SE15      29.92F HX  84
6HR MIN TEMP:  66; 6HR MAX TEMP:  83;

WATERTOWN      MOSUNNY   83  64  52 SE13G18   29.93F HX  84
6HR MIN TEMP:  66; 6HR MAX TEMP:  83;

MONROE         CLOUDY    81  63  54 SE16G22   29.92F HX  82
JANESVILLE     MOSUNNY   84  61  45 SE15      29.93F HX  84
$$

WIZ051-052-058>065-066-070>072-251900-
SOUTHEAST WISCONSIN

CITY           SKY/WX    TMP DP  RH WIND       PRES   REMARKS
MILWAUKEE      PTSUNNY   59  52  77 NE13      30.00F
6HR MIN TEMP:  58; 6HR MAX TEMP:  77;

WAUKESHA       SUNNY     73  61  64 E8        29.99F
MILWAUKEE/TIMM SUNNY     68  52  56 E6        30.00F
RACINE         SUNNY     62  51  67 NE8       30.01F
6HR MIN TEMP:  61; 6HR MAX TEMP:  77;

BURLINGTON     MOSUNNY   83  59  44 S8        29.95F HX  82
6HR MIN TEMP:  63; 6HR MAX TEMP:  83;

KENOSHA        MOSUNNY   74  61  63 E14       29.97F
6HR MIN TEMP:  69; 6HR MAX TEMP:  81;

FOND DU LAC    CLOUDY    76  60  57 E15       29.97F
6HR MIN TEMP:  64; 6HR MAX TEMP:  77;

SHEBOYGAN      CLOUDY    62  54  74 NE14      30.02F
6HR MIN TEMP:  57; 6HR MAX TEMP:  62;

WEST BEND      MOSUNNY   70  59  68 NE10      29.99F
JUNEAU         PTSUNNY   80  66  63 E10       29.95F HX  82
6HR MIN TEMP:  66; 6HR MAX TEMP:  80;

$$

LSZ147-162-251900-
LAKE SUPERIOR

STATION/POSITION TIME  TEMP    WIND        PRES    WAVE
                       AIR SEA DIR/SP/G            HT/PER
                 (UTC) (F)     (DEG/KT/KT) (MB)    (FT/S)
W MID LAKE BUOY  1750   39 38   50/ 16/ 19 1018.2F   2/ 4
DEVILS ISLAND    1800   43      50/ 19/ 22 1017.6F
PORT WING        1700   43      40/ 17/ 20 1017.3S
SAXON HARBOR     1700   46     340/  3/  3 1016.9R
$$

LMZ867-665-643>646-251900-
LAKE MICHIGAN

STATION/POSITION TIME  TEMP    WIND        PRES    WAVE
                       AIR SEA DIR/SP/G            HT/PER
                 (UTC) (F)     (DEG/KT/KT) (MB)    (FT/S)
CHAMBERS ISLAND  1700   55      50/  9/ 11 1018.3S
N MID LAKE BUOY  1750   48 45   10/  8/ 10 1018.0F   0
NORTHPORT PIER   1800   58      70/  8/ 15 1017.9F
SISTER BAY       1650   55     340/ 12/ 14   N/A
ALGOMA LAKESHORE 1702           60/ 17/ 20   N/A
KEWAUNEE LAKEC1F1C2F2C3F3C4F4C5F5C6F6C7F7C8M1C9M2Ca!



USA.gov is the U.S. government's official web portal to all federal, state and local government web resources and services.